PP5MEL-5 Weather Reports


time (UTC)temp
F
wind
direction
speed
knots
gust
knots
rain 1hr
in
rain 24hr
in
rain mn
in
humidity
%
barometer
mb
20260504190215 77 45 26.1 0.0 0.00 0.00 0.00 47 1016.6
20260504185704 77 48 25.2 0.0 0.00 0.00 0.00 47 1016.9
20260504185154 77 57 17.4 0.0 0.00 0.00 0.00 47 1016.9
20260504184643 77 66 22.6 0.0 0.00 0.00 0.00 47 1016.9
20260504181051 76 45 17.4 0.0 0.00 0.00 0.00 48 1016.9
20260504180541 76 45 29.5 0.0 0.00 0.00 0.00 48 1016.9
20260504180030 76 45 22.6 0.0 0.00 0.00 0.00 48 1016.9
20260504175520 76 45 28.7 0.0 0.00 0.00 0.00 48 1016.9
20260504175009 76 50 27.8 0.0 0.00 0.00 0.00 49 1017.1
20260504174458 76 70 21.7 0.0 0.00 0.00 0.00 49 1017.1
20260504173441 75 73 14.8 0.0 0.00 0.00 0.00 49 1017.1
20260504172931 75 129 19.1 0.0 0.00 0.00 0.00 49 1017.2
20260504172420 75 263 7.8 0.0 0.00 0.00 0.00 50 1017.3
20260504171910 75 93 13.0 0.0 0.00 0.00 0.00 50 1017.4
20260504171359 75 103 20.0 0.0 0.00 0.00 0.00 50 1017.4
20260504170849 74 45 29.5 0.0 0.00 0.00 0.00 50 1017.3
20260504170338 74 95 12.2 0.0 0.00 0.00 0.00 50 1017.6
20260504160134 72 72 25.2 0.0 0.00 0.00 0.00 51 1018.6
20260504150949 70 90 21.7 0.0 0.00 0.00 0.00 53 1019.4
20260504150440 70 45 37.4 0.0 0.00 0.00 0.00 53 1019.5
20260504141254 67 63 30.4 0.0 0.00 0.00 0.00 53 1020.2
20260504140743 67 45 28.7 0.0 0.00 0.00 0.00 53 1020.3
20260504140232 67 67 33.0 0.0 0.00 0.00 0.00 52 1020.5
20260504130538 65 45 25.2 0.0 0.00 0.00 0.00 52 1021.4
20260504120234 63 45 26.9 0.0 0.00 0.00 0.00 50 1021.9
20260504110539 62 45 2.6 0.0 0.00 0.00 0.00 49 1021.5
20260504100335 62 45 0.9 0.0 0.00 0.00 0.00 48 1021.6
20260504090131 62 90 0.0 0.0 0.00 0.00 0.00 48 1021.1
20260504082008 63 90 0.0 0.0 0.00 0.00 0.00 48 1021.2
20260504081458 63 90 0.0 0.0 0.00 0.00 0.00 47 1021.1
20260504080947 63 90 0.0 0.0 0.00 0.00 0.00 47 1021.1
20260504080436 63 90 0.0 0.0 0.00 0.00 0.00 47 1021.0
20260504070232 64 90 0.0 0.0 0.00 0.00 0.00 47 1021.1
20260504050329 65 90 0.0 0.0 0.00 0.00 0.00 46 1022.6
20260504045819 65 90 0.0 0.0 0.00 0.00 0.00 46 1022.6
20260504045309 65 115 0.0 0.0 0.00 0.00 0.00 46 1022.7
20260504044758 65 135 0.0 0.0 0.00 0.00 0.00 46 1022.7
20260504044248 65 135 0.0 0.0 0.00 0.00 0.00 46 1022.8
20260504043738 66 135 0.0 0.0 0.00 0.00 0.00 46 1022.9
20260504043227 66 135 0.0 0.0 0.00 0.00 0.00 46 1023.1
20260504042717 66 135 0.0 0.0 0.00 0.00 0.00 46 1023.3
20260504042207 66 135 0.0 0.0 0.00 0.00 0.00 46 1023.3
20260504041657 66 135 0.0 0.0 0.00 0.00 0.00 46 1023.4
20260504041147 66 135 0.0 0.0 0.00 0.00 0.00 46 1023.5
20260504040637 66 135 0.0 0.0 0.00 0.00 0.00 46 1023.6
20260504040127 66 135 0.0 0.0 0.00 0.00 0.00 46 1023.7
20260504035617 66 135 0.0 0.0 0.00 0.00 0.00 46 1023.8
20260504035107 66 135 0.0 0.0 0.00 0.00 0.00 46 1024.0
20260504034556 66 135 0.0 0.0 0.00 0.00 0.00 45 1024.0
20260504034046 66 135 0.0 0.0 0.00 0.00 0.00 45 1023.9
20260504033536 67 135 0.0 0.0 0.00 0.00 0.00 45 1023.7
20260504033025 67 135 0.0 0.0 0.00 0.00 0.00 45 1023.8
20260504032514 67 135 0.0 0.0 0.00 0.00 0.00 45 1023.8
20260504032004 67 135 0.0 0.0 0.00 0.00 0.00 45 1023.8
20260504031454 67 135 0.0 0.0 0.00 0.00 0.00 45 1023.9
20260504030944 67 135 0.0 0.0 0.00 0.00 0.00 45 1023.9
20260504030434 67 135 0.0 0.0 0.00 0.00 0.00 45 1023.8
20260504025924 67 135 0.0 0.0 0.00 0.00 0.00 45 1023.8
20260504025413 67 135 0.0 0.0 0.00 0.00 0.00 45 1023.8
20260504024904 67 135 0.0 0.0 0.00 0.00 0.00 45 1023.7
20260504024353 67 135 0.0 0.0 0.00 0.00 0.00 45 1023.7
20260504023842 68 135 0.0 0.0 0.00 0.00 0.00 45 1023.7
20260504023332 68 135 0.0 0.0 0.00 0.00 0.00 45 1023.6
20260504022821 68 135 0.0 0.0 0.00 0.00 0.00 45 1023.6
20260504022311 68 135 0.0 0.0 0.00 0.00 0.00 44 1023.6
20260504021801 68 135 0.0 0.0 0.00 0.00 0.00 44 1023.6
20260504021251 68 135 0.0 0.0 0.00 0.00 0.00 44 1023.8
20260504020740 68 135 0.0 0.0 0.00 0.00 0.00 44 1023.9
20260504020230 68 135 0.0 0.0 0.00 0.00 0.00 44 1024.0
20260504015720 68 135 0.0 0.0 0.00 0.00 0.00 44 1024.1
20260504015209 69 135 0.0 0.0 0.00 0.00 0.00 44 1024.1
20260504014659 69 135 0.0 0.0 0.00 0.00 0.00 44 1024.2
20260504014149 69 135 0.0 0.0 0.00 0.00 0.00 44 1024.3
20260504013639 69 135 0.0 0.0 0.00 0.00 0.00 44 1024.3
20260504013129 69 135 0.0 0.0 0.00 0.00 0.00 44 1024.4
20260504012618 69 135 0.0 0.0 0.00 0.00 0.00 44 1024.4
20260504012108 69 135 0.0 0.0 0.00 0.00 0.00 44 1024.4
20260504011558 69 135 0.0 0.0 0.00 0.00 0.00 44 1024.4
20260504011047 69 135 0.0 0.0 0.00 0.00 0.00 44 1024.3
20260504010537 69 135 0.0 0.0 0.00 0.00 0.00 44 1024.3
20260504010027 69 135 0.0 0.0 0.00 0.00 0.00 44 1024.5
20260504005516 69 135 0.0 0.0 0.00 0.00 0.00 44 1024.5
20260504005006 69 135 0.0 0.0 0.00 0.00 0.00 44 1024.6
20260504004456 70 135 0.0 0.0 0.00 0.00 0.00 44 1024.5
20260504003435 70 135 0.0 0.0 0.00 0.00 0.00 44 1024.5
20260504002924 70 135 0.0 0.0 0.00 0.00 0.00 44 1024.5
20260504002414 70 135 0.0 0.0 0.00 0.00 0.00 44 1024.5
20260504001903 70 135 0.0 0.0 0.00 0.00 0.00 44 1024.6
20260504001353 70 135 0.0 0.0 0.00 0.00 0.00 44 1024.6
20260504000843 70 135 0.0 0.0 0.00 0.00 0.00 44 1024.7
20260504000332 70 135 0.0 0.0 0.00 0.00 0.00 44 1024.7
20260503235822 70 135 0.0 0.0 0.00 0.00 0.00 43 1024.7
20260503235311 70 135 0.0 0.0 0.00 0.00 0.00 43 1024.6
20260503234801 70 135 0.0 0.0 0.00 0.00 0.00 43 1024.6
20260503234251 70 135 0.0 0.0 0.00 0.00 0.00 43 1024.6
20260503233741 70 135 0.0 0.0 0.00 0.00 0.00 43 1024.6
20260503233230 70 135 0.0 0.0 0.00 0.00 0.00 43 1024.6
20260503232720 70 135 0.0 0.0 0.00 0.00 0.00 43 1024.7
20260503232210 71 135 0.0 0.0 0.00 0.00 0.00 43 1024.6
20260503231659 71 135 0.0 0.0 0.00 0.00 0.00 43 1024.6
20260503231149 71 135 0.0 0.0 0.00 0.00 0.00 43 1024.7
20260503230639 71 135 0.0 0.0 0.00 0.00 0.00 43 1024.7
20260503230128 71 135 0.0 0.0 0.00 0.00 0.00 43 1024.8
20260503225618 71 135 0.0 0.0 0.00 0.00 0.00 43 1024.7
20260503225107 71 135 0.0 0.0 0.00 0.00 0.00 43 1024.7
20260503224557 71 135 0.0 0.0 0.00 0.00 0.00 43 1024.7
20260503224047 71 135 0.0 0.0 0.00 0.00 0.00 43 1024.6
20260503223537 71 135 0.0 0.0 0.00 0.00 0.00 43 1024.6
20260503223027 71 135 0.0 0.0 0.00 0.00 0.00 43 1024.7
20260503222516 71 135 0.0 0.0 0.00 0.00 0.00 42 1024.6
20260503222005 71 135 0.0 0.0 0.00 0.00 0.00 42 1024.6
20260503221455 71 135 0.0 0.0 0.00 0.00 0.00 42 1024.7
20260503220945 71 135 0.0 0.0 0.00 0.00 0.00 42 1024.7
20260503220434 71 135 0.0 0.0 0.00 0.00 0.00 42 1024.7
20260503215923 72 135 0.0 0.0 0.00 0.00 0.00 42 1024.7
20260503215413 72 135 0.0 0.0 0.00 0.00 0.00 42 1024.7
20260503214902 72 135 0.0 0.0 0.00 0.00 0.00 41 1024.7
20260503214352 72 135 0.0 0.0 0.00 0.00 0.00 41 1024.6
20260503213842 72 135 0.0 0.0 0.00 0.00 0.00 40 1024.6
20260503213332 72 135 0.0 0.0 0.00 0.00 0.00 40 1024.5
20260503212821 72 135 0.0 0.0 0.00 0.00 0.00 40 1024.4
20260503212311 72 135 0.0 0.0 0.00 0.00 0.00 39 1024.4
20260503211800 73 135 0.0 0.0 0.00 0.00 0.00 39 1024.4
20260503211250 73 135 0.0 0.0 0.00 0.00 0.00 39 1024.4
20260503210740 73 135 0.0 0.0 0.00 0.00 0.00 38 1024.4
20260503210229 73 135 0.0 0.0 0.00 0.00 0.00 38 1024.4
20260503205719 73 135 0.0 0.0 0.00 0.00 0.00 38 1024.4
20260503205208 73 135 0.0 0.0 0.00 0.00 0.00 38 1024.3
20260503204658 73 135 0.0 0.0 0.00 0.00 0.00 38 1024.3
20260503204147 73 135 0.0 0.0 0.00 0.00 0.00 38 1024.3
20260503203636 73 135 1.7 0.0 0.00 0.00 0.00 38 1024.2
20260503203125 73 135 1.7 0.0 0.00 0.00 0.00 38 1024.2
20260503202615 73 135 1.7 0.0 0.00 0.00 0.00 38 1024.1
20260503202105 73 135 3.5 0.0 0.00 0.00 0.00 38 1024.1
20260503201555 73 135 4.3 0.0 0.00 0.00 0.00 37 1024.1
20260503201045 73 135 2.6 0.0 0.00 0.00 0.00 37 1024.1
20260503200534 73 135 0.9 0.0 0.00 0.00 0.00 37 1024.1
20260503200023 73 135 2.6 0.0 0.00 0.00 0.00 37 1024.1
20260503195513 73 118 6.1 0.0 0.00 0.00 0.00 36 1024.2
20260503195002 73 92 22.6 0.0 0.00 0.00 0.00 36 1024.2
20260503194450 73 135 0.9 0.0 0.00 0.00 0.00 36 1024.2
20260503193941 73 134 5.2 0.0 0.00 0.00 0.00 36 1024.2
20260503193431 73 135 1.7 0.0 0.00 0.00 0.00 37 1024.1
20260503192920 73 135 3.5 0.0 0.00 0.00 0.00 37 1024.2
20260503192410 73 135 3.5 0.0 0.00 0.00 0.00 36 1024.2
20260503191900 73 135 0.9 0.0 0.00 0.00 0.00 36 1024.1
20260503191350 73 135 0.9 0.0 0.00 0.00 0.00 36 1024.1
20260503190840 73 135 0.9 0.0 0.00 0.00 0.00 36 1024.2